DW3560 Weather Reports


Display with metric or nautical units.
time (UTC)temp
F
wind
direction
speed
MPH
gust
MPH
rain 1hr
in
rain 24hr
in
rain mn
in
humidity
%
barometer
mb
20260507210503 69 335 1.0 5.0 0.00 0.00 0.00 67 1018.4
20260507210003 68 319 1.0 6.0 0.00 0.00 0.00 67 1018.4
20260507205503 68 276 1.0 6.0 0.00 0.00 0.00 67 1018.4
20260507205003 68 268 2.0 6.0 0.00 0.00 0.00 66 1018.4
20260507204503 68 251 1.0 5.0 0.00 0.00 0.00 67 1018.4
20260507204003 68 267 1.0 5.0 0.00 0.00 0.00 67 1018.4
20260507203503 67 290 1.0 3.0 0.00 0.00 0.00 68 1018.4
20260507203003 67 224 2.0 4.0 0.00 0.00 0.00 67 1018.4
20260507202503 67 206 2.0 4.0 0.00 0.00 0.00 67 1018.4
20260507202003 66 233 1.0 4.0 0.00 0.00 0.00 68 1018.4
20260507201503 66 285 1.0 3.0 0.00 0.00 0.00 69 1018.8
20260507201003 66 240 1.0 5.0 0.00 0.00 0.00 69 1018.8
20260507200503 66 242 1.0 5.0 0.00 0.00 0.00 69 1018.8
20260507200024 65 325 1.0 4.0 0.00 0.00 0.00 70 1018.8
20260507195524 65 340 1.0 6.0 0.00 0.00 0.00 71 1018.8
20260507195003 65 325 1.0 6.0 0.00 0.00 0.00 72 1018.8
20260507194503 65 325 1.0 5.0 0.00 0.00 0.00 73 1018.8
20260507194003 64 327 1.0 4.0 0.00 0.00 0.00 73 1018.8
20260507193503 64 285 1.0 4.0 0.00 0.00 0.00 74 1018.8
20260507193003 64 300 1.0 5.0 0.00 0.00 0.00 74 1018.8
20260507192503 63 338 2.0 5.0 0.00 0.00 0.00 75 1018.8
20260507192003 63 343 1.0 4.0 0.00 0.00 0.00 77 1018.8
20260507191503 62 334 1.0 4.0 0.00 0.00 0.00 78 1019.3
20260507191003 62 326 1.0 4.0 0.00 0.00 0.00 77 1019.3
20260507190503 61 280 1.0 4.0 0.00 0.00 0.00 79 1019.3
20260507190004 61 277 1.0 3.0 0.00 0.00 0.00 78 1019.3
20260507185503 61 272 1.0 4.0 0.00 0.00 0.00 79 1019.3
20260507185024 60 231 2.0 8.0 0.00 0.00 0.00 80 1019.3
20260507184524 60 250 2.0 8.0 0.00 0.00 0.00 79 1019.3
20260507184003 61 341 2.0 6.0 0.00 0.00 0.00 81 1019.3
20260507183503 60 349 2.0 6.0 0.00 0.00 0.00 82 1019.3
20260507183003 60 4 1.0 5.0 0.00 0.00 0.00 84 1019.3
20260507182503 60 348 1.0 5.0 0.00 0.00 0.00 85 1019.3
20260507182024 59 341 1.0 8.0 0.00 0.00 0.00 87 1019.3
20260507181503 59 345 1.0 8.0 0.00 0.00 0.00 88 1018.5
20260507181003 59 354 1.0 4.0 0.00 0.00 0.00 89 1018.5
20260507180503 58 296 1.0 4.0 0.00 0.00 0.00 91 1018.5
20260507180024 57 275 1.0 4.0 0.00 0.00 0.00 91 1018.5
20260507175503 57 326 1.0 4.0 0.00 0.00 0.00 92 1018.5
20260507175003 57 342 0.0 5.0 0.00 0.00 0.00 93 1018.5
20260507174503 56 333 0.0 5.0 0.00 0.00 0.00 93 1018.5
20260507174003 56 337 1.0 4.0 0.00 0.00 0.00 94 1018.5
20260507173524 56 337 1.0 4.0 0.00 0.00 0.00 94 1018.5
20260507173003 55 338 1.0 5.0 0.00 0.00 0.00 94 1018.5
20260507172503 55 336 2.0 5.0 0.00 0.00 0.00 95 1018.5
20260507172003 55 308 1.0 4.0 0.00 0.00 0.00 95 1018.5
20260507171503 54 263 0.0 2.0 0.00 0.00 0.00 95 1018.5
20260507171003 54 308 1.0 4.0 0.00 0.00 0.00 95 1018.5
20260507170503 54 330 1.0 4.0 0.00 0.00 0.00 95 1018.5
20260507170003 54 343 1.0 4.0 0.00 0.00 0.00 95 1018.5
20260507165503 53 342 1.0 4.0 0.00 0.00 0.00 95 1018.5
20260507165003 53 337 1.0 4.0 0.00 0.00 0.00 95 1018.5
20260507164503 53 332 1.0 4.0 0.00 0.00 0.00 95 1018.5
20260507164003 53 334 1.0 4.0 0.00 0.00 0.00 95 1018.5
20260507163503 53 344 1.0 3.0 0.00 0.00 0.00 95 1018.5
20260507163003 53 343 0.0 2.0 0.00 0.00 0.00 95 1018.5
20260507162503 52 346 0.0 3.0 0.00 0.00 0.00 95 1018.5
20260507162024 52 344 1.0 4.0 0.00 0.00 0.00 95 1018.5
20260507161503 52 343 1.0 4.0 0.00 0.00 0.00 95 1018.5
20260507161003 52 340 1.0 4.0 0.00 0.00 0.00 95 1018.5
20260507160524 52 339 1.0 4.0 0.00 0.00 0.00 95 1018.5
20260507160003 52 336 1.0 3.0 0.00 0.00 0.00 95 1018.5
20260507155503 52 337 1.0 3.0 0.00 0.00 0.00 95 1018.5
20260507155003 52 340 1.0 3.0 0.00 0.00 0.00 95 1018.5
20260507154503 52 346 1.0 5.0 0.00 0.00 0.00 95 1018.5
20260507154003 52 347 1.0 5.0 0.00 0.00 0.00 95 1018.5
20260507153524 52 348 1.0 3.0 0.00 0.00 0.00 95 1018.5
20260507153003 52 346 0.0 2.0 0.00 0.00 0.00 95 1018.5
20260507152503 52 346 1.0 3.0 0.00 0.00 0.00 95 1018.5
20260507152003 52 346 1.0 4.0 0.00 0.00 0.00 95 1018.5
20260507151503 52 345 1.0 4.0 0.00 0.00 0.00 95 1018.5
20260507151024 52 344 0.0 2.0 0.00 0.00 0.00 95 1018.5
20260507150503 51 344 0.0 2.0 0.00 0.00 0.00 95 1018.5
20260507150003 51 344 1.0 4.0 0.00 0.00 0.00 95 1018.5
20260507145524 51 344 1.0 4.0 0.00 0.00 0.00 95 1018.5
20260507145003 51 344 1.0 4.0 0.00 0.00 0.00 95 1018.5
20260507144503 51 344 0.0 2.0 0.00 0.00 0.00 95 1018.5
20260507144003 51 344 0.0 2.0 0.00 0.00 0.00 95 1018.5
20260507143503 51 344 0.0 2.0 0.00 0.00 0.00 95 1018.5
20260507143025 51 344 0.0 2.0 0.00 0.00 0.00 95 1018.5
20260507142503 51 344 0.0 3.0 0.00 0.00 0.00 95 1018.5
20260507142003 51 346 1.0 5.0 0.00 0.00 0.00 95 1018.5
20260507141503 51 346 1.0 5.0 0.00 0.00 0.00 95 1018.5
20260507141003 51 350 0.0 1.0 0.00 0.00 0.00 95 1018.5
20260507140524 51 350 0.0 1.0 0.00 0.00 0.00 95 1018.5
20260507140003 51 351 0.0 1.0 0.00 0.00 0.00 95 1018.5
20260507135503 51 351 0.0 3.0 0.00 0.00 0.00 95 1018.5
20260507135004 51 351 0.0 3.0 0.00 0.00 0.00 95 1018.5
20260507134524 51 350 0.0 2.0 0.00 0.00 0.00 95 1018.5
20260507134003 51 353 0.0 4.0 0.00 0.00 0.00 95 1018.5
20260507133503 51 346 0.0 4.0 0.00 0.00 0.00 95 1018.5
20260507133003 51 318 0.0 3.0 0.00 0.00 0.00 95 1018.5
20260507132524 51 312 0.0 2.0 0.00 0.00 0.00 95 1018.5
20260507132003 51 315 0.0 1.0 0.00 0.00 0.00 95 1018.5
20260507131503 51 315 0.0 1.0 0.00 0.00 0.00 95 1018.5
20260507131003 51 315 0.0 1.0 0.00 0.00 0.00 95 1018.5
20260507130503 51 317 0.0 2.0 0.00 0.00 0.00 95 1018.5
20260507130003 51 319 0.0 2.0 0.00 0.00 0.00 95 1018.5
20260507125524 51 321 0.0 2.0 0.00 0.00 0.00 94 1018.5
20260507125003 51 320 0.0 3.0 0.00 0.00 0.00 94 1018.5
20260507124503 51 319 0.0 3.0 0.00 0.00 0.00 94 1018.5
20260507124003 52 0 0.0 0.0 0.00 0.00 0.00 94 1018.5
20260507123503 51 0 0.0 0.0 0.00 0.00 0.00 94 1018.5
20260507123003 51 0 0.0 0.0 0.00 0.00 0.00 94 1018.5
20260507122503 51 0 0.0 0.0 0.00 0.00 0.00 94 1018.5
20260507122024 51 0 0.0 0.0 0.00 0.00 0.00 94 1018.5
20260507121503 52 0 0.0 0.0 0.00 0.00 0.00 94 1018.5
20260507121003 52 0 0.0 0.0 0.00 0.00 0.00 94 1018.5
20260507120503 51 0 0.0 0.0 0.00 0.00 0.00 94 1018.5
20260507120002 51 277 0.0 2.0 0.00 0.00 0.00 94 1018.5
20260507115501 51 294 0.0 2.0 0.00 0.00 0.00 94 1018.5
20260507115002 51 305 0.0 2.0 0.00 0.00 0.00 94 1018.5
20260507114502 51 307 0.0 2.0 0.00 0.00 0.00 94 1018.5
20260507114022 52 303 0.0 2.0 0.00 0.00 0.00 94 1018.5
20260507113523 52 296 0.0 2.0 0.00 0.00 0.00 94 1018.5
20260507113002 52 240 0.0 2.0 0.00 0.00 0.00 94 1018.5
20260507112501 52 240 0.0 2.0 0.00 0.00 0.00 94 1018.5
20260507112002 52 248 0.0 1.0 0.00 0.00 0.00 94 1018.5
20260507111502 52 0 0.0 0.0 0.00 0.00 0.00 94 1018.5
20260507111002 52 0 0.0 0.0 0.00 0.00 0.00 94 1018.5
20260507110502 52 248 0.0 1.0 0.00 0.00 0.00 94 1018.5
20260507110023 52 248 0.0 1.0 0.00 0.00 0.00 94 1019.2
20260507105501 52 264 0.0 2.0 0.00 0.00 0.00 94 1019.2
20260507105001 52 270 0.0 2.0 0.00 0.00 0.00 94 1019.2
20260507104501 52 223 0.0 2.0 0.00 0.00 0.00 94 1019.2
20260507104001 52 223 0.0 2.0 0.00 0.00 0.00 94 1019.2
20260507103501 52 223 0.0 2.0 0.00 0.00 0.00 94 1019.2
20260507103022 52 223 0.0 3.0 0.00 0.00 0.00 94 1019.2
20260507102502 52 223 0.0 3.0 0.00 0.00 0.00 94 1019.2
20260507102001 53 222 0.0 1.0 0.00 0.00 0.00 94 1019.2
20260507101501 53 222 0.0 2.0 0.00 0.00 0.00 94 1019.2
20260507101002 53 222 0.0 2.0 0.00 0.00 0.00 94 1019.2
20260507100501 53 216 0.0 2.0 0.00 0.00 0.00 94 1019.2
20260507100002 53 216 0.0 2.0 0.00 0.00 0.00 93 1019.2
20260507095501 53 216 0.0 2.0 0.00 0.00 0.00 94 1019.2
20260507095002 53 216 0.0 2.0 0.00 0.00 0.00 93 1019.2
20260507094501 53 216 0.0 3.0 0.00 0.00 0.00 94 1019.2
20260507094022 53 216 0.0 3.0 0.00 0.00 0.00 94 1019.2
20260507093501 53 216 0.0 2.0 0.00 0.00 0.00 94 1019.2
20260507093002 53 216 0.0 2.0 0.00 0.00 0.00 93 1019.2
20260507092502 53 0 0.0 0.0 0.00 0.00 0.00 93 1019.2
20260507092022 53 216 0.0 2.0 0.00 0.00 0.00 93 1019.2
20260507091502 53 216 0.0 2.0 0.00 0.00 0.00 93 1019.2
20260507091002 53 231 0.0 2.0 0.00 0.00 0.00 93 1019.2
20260507090502 53 240 0.0 2.0 0.00 0.00 0.00 93 1019.2
20260507090002 53 245 0.0 2.0 0.00 0.00 0.00 93 1019.2
20260507085523 53 236 0.0 2.0 0.00 0.00 0.00 93 1019.2
20260507085002 53 236 0.0 1.0 0.00 0.00 0.00 93 1019.2
20260507084502 53 237 0.0 1.0 0.00 0.00 0.00 93 1019.2
20260507084001 53 237 0.0 3.0 0.00 0.00 0.00 93 1019.2
20260507083501 53 238 0.0 4.0 0.00 0.00 0.00 93 1019.2
20260507083023 53 238 0.0 4.0 0.00 0.00 0.00 93 1019.2
20260507082501 53 236 0.0 3.0 0.00 0.00 0.00 93 1019.2
20260507082002 53 237 0.0 3.0 0.00 0.00 0.00 93 1019.2
20260507081502 53 241 0.0 2.0 0.00 0.00 0.00 93 1019.2
20260507081023 53 244 0.0 2.0 0.00 0.00 0.00 93 1019.2
20260507080502 53 244 0.0 2.0 0.00 0.00 0.00 93 1019.2
20260507080002 53 242 1.0 3.0 0.00 0.00 0.00 93 1019.2
20260507075501 53 241 0.0 3.0 0.00 0.00 0.00 93 1019.2
20260507075001 53 230 0.0 2.0 0.00 0.00 0.00 93 1019.2
20260507074502 53 232 0.0 3.0 0.00 0.00 0.00 92 1019.2
20260507074002 53 241 0.0 3.0 0.00 0.00 0.00 92 1019.2
20260507073502 53 329 0.0 1.0 0.00 0.00 0.00 92 1019.2
20260507073002 53 329 0.0 1.0 0.00 0.00 0.00 92 1019.2
20260507072502 53 330 0.0 2.0 0.00 0.00 0.00 92 1019.2
20260507072002 53 330 0.0 2.0 0.00 0.00 0.00 92 1019.2
20260507071523 53 331 0.0 1.0 0.00 0.00 0.00 92 1019.2
20260507071002 53 331 0.0 1.0 0.00 0.00 0.00 92 1019.2
20260507070503 53 331 0.0 2.0 0.00 0.00 0.00 92 1019.2
20260507070008 53 328 0.0 3.0 0.00 0.00 0.00 92 1019.2
20260507065502 53 325 0.0 3.0 0.00 0.00 0.00 92 1019.2
20260507065023 54 311 0.0 3.0 0.00 0.00 0.00 92 1019.2
20260507064501 54 302 0.0 3.0 0.00 0.00 0.00 92 1019.2
20260507064002 54 285 0.0 2.0 0.00 0.00 0.00 92 1019.2
20260507063502 54 328 0.0 3.0 0.00 0.00 0.00 92 1019.2
20260507063002 54 332 1.0 5.0 0.00 0.00 0.00 91 1019.2
20260507062502 54 325 0.0 5.0 0.00 0.00 0.00 91 1019.2
20260507062002 54 295 0.0 3.0 0.00 0.00 0.00 91 1019.2
20260507061502 54 267 0.0 1.0 0.00 0.00 0.00 91 1019.2
20260507061002 54 259 0.0 1.0 0.00 0.00 0.00 91 1019.2
20260507060502 54 259 0.0 1.0 0.00 0.00 0.00 91 1019.2
20260507060002 54 259 0.0 1.0 0.00 0.00 0.00 91 1019.2
20260507055502 54 259 0.0 1.0 0.00 0.00 0.00 91 1019.2
20260507055002 54 259 0.0 1.0 0.00 0.00 0.00 91 1019.2
20260507054502 54 261 0.0 1.0 0.00 0.00 0.00 91 1019.2
20260507054023 54 247 0.0 3.0 0.00 0.00 0.00 91 1019.2
20260507053502 54 237 0.0 3.0 0.00 0.00 0.00 91 1019.2
20260507053001 54 221 0.0 3.0 0.00 0.00 0.00 90 1019.2
20260507052502 54 221 0.0 3.0 0.00 0.00 0.00 90 1019.2
20260507052002 54 231 1.0 5.0 0.00 0.00 0.00 90 1019.2
20260507051501 54 227 1.0 5.0 0.00 0.00 0.00 90 1018.5
20260507051002 54 217 1.0 4.0 0.00 0.00 0.00 90 1018.5
20260507050502 55 209 1.0 3.0 0.00 0.00 0.00 90 1018.5
20260507050023 55 197 1.0 4.0 0.00 0.00 0.00 89 1018.5
20260507045502 55 199 0.0 4.0 0.00 0.00 0.00 89 1018.5
20260507045002 55 197 0.0 3.0 0.00 0.00 0.00 89 1018.5
20260507044523 55 197 1.0 3.0 0.00 0.00 0.00 89 1018.5
20260507044002 55 198 1.0 4.0 0.00 0.00 0.00 89 1018.5
20260507043502 55 199 1.0 4.0 0.00 0.00 0.00 88 1018.5
20260507043002 55 202 1.0 3.0 0.00 0.00 0.00 88 1018.5
20260507042502 55 204 0.0 3.0 0.00 0.00 0.00 88 1018.5
20260507042002 55 225 1.0 4.0 0.00 0.00 0.00 88 1018.5
20260507041523 55 250 1.0 4.0 0.00 0.00 0.00 87 1018.5
20260507041002 55 299 0.0 2.0 0.00 0.00 0.00 87 1018.5
20260507040502 55 303 0.0 2.0 0.00 0.00 0.00 87 1018.5
20260507040002 56 304 0.0 2.0 0.00 0.00 0.00 87 1018.5
20260507035523 56 304 0.0 1.0 0.00 0.00 0.00 86 1018.5
20260507035002 56 311 0.0 1.0 0.00 0.00 0.00 86 1018.5
20260507034502 56 312 0.0 2.0 0.00 0.00 0.00 86 1018.5
20260507034002 56 316 0.0 2.0 0.00 0.00 0.00 86 1018.5
20260507033502 56 338 0.0 1.0 0.00 0.00 0.00 86 1018.5
20260507033002 56 339 0.0 2.0 0.00 0.00 0.00 85 1018.5
20260507032502 56 340 0.0 2.0 0.00 0.00 0.00 85 1018.5
20260507032002 57 341 0.0 2.0 0.00 0.00 0.00 85 1018.5
20260507031502 57 334 0.0 2.0 0.00 0.00 0.00 85 1020.1
20260507031002 57 329 0.0 2.0 0.00 0.00 0.00 84 1020.1
20260507030502 57 324 0.0 2.0 0.00 0.00 0.00 84 1020.1
20260507030003 58 327 0.0 3.0 0.00 0.00 0.00 84 1020.1
20260507025523 58 328 0.0 3.0 0.00 0.00 0.00 83 1020.1
20260507025002 58 333 0.0 2.0 0.00 0.00 0.00 83 1020.1
20260507024502 58 340 0.0 3.0 0.00 0.00 0.00 83 1020.1
20260507024002 58 349 1.0 3.0 0.00 0.00 0.00 82 1020.1
20260507023502 59 352 1.0 4.0 0.00 0.00 0.00 82 1020.1
20260507023002 59 340 1.0 5.0 0.00 0.00 0.00 82 1020.1
20260507022502 59 316 0.0 5.0 0.00 0.00 0.00 82 1020.1
20260507022002 60 325 0.0 3.0 0.00 0.00 0.00 81 1020.1
20260507021502 60 296 0.0 2.0 0.00 0.00 0.00 81 1020.1
20260507021002 60 245 0.0 2.0 0.00 0.00 0.00 81 1020.1
20260507020502 60 267 0.0 5.0 0.00 0.00 0.00 80 1020.1
20260507020002 60 326 1.0 6.0 0.00 0.00 0.00 80 1020.1
20260507015523 61 357 1.0 6.0 0.00 0.00 0.00 79 1020.1
20260507015002 62 176 0.0 3.0 0.00 0.00 0.00 78 1020.1
20260507014502 62 336 0.0 2.0 0.00 0.00 0.00 78 1020.1
20260507014002 62 311 1.0 3.0 0.00 0.00 0.00 78 1020.1
20260507013502 63 274 1.0 3.0 0.00 0.00 0.00 77 1020.1
20260507013002 63 267 1.0 5.0 0.00 0.00 0.00 77 1020.1
20260507012502 64 260 1.0 5.0 0.00 0.00 0.00 75 1020.1
20260507012002 64 203 1.0 3.0 0.00 0.00 0.00 75 1020.1
20260507011502 65 358 1.0 5.0 0.00 0.00 0.00 74 1020.1
20260507011023 66 348 1.0 6.0 0.00 0.00 0.00 73 1020.1
20260507010502 66 349 1.0 6.0 0.00 0.00 0.00 72 1020.1
20260507010002 67 2 1.0 8.0 0.00 0.00 0.00 71 1020.1
20260507005502 67 352 1.0 8.0 0.00 0.00 0.00 71 1020.1
20260507005002 67 345 2.0 8.0 0.00 0.00 0.00 71 1020.1
20260507004502 68 342 2.0 5.0 0.00 0.00 0.00 71 1020.1
20260507004023 68 344 2.0 6.0 0.00 0.00 0.00 70 1020.1
20260507003502 68 346 2.0 6.0 0.00 0.00 0.00 70 1020.1
20260507003002 68 333 1.0 4.0 0.00 0.00 0.00 70 1020.1
20260507002502 68 331 1.0 8.0 0.00 0.00 0.00 70 1020.1
20260507002023 68 339 2.0 9.0 0.00 0.00 0.00 70 1020.1
20260507001502 69 341 2.0 9.0 0.00 0.00 0.00 70 1020.1
20260507001023 69 342 1.0 8.0 0.00 0.00 0.00 69 1020.1
20260507000502 69 345 2.0 5.0 0.00 0.00 0.00 69 1020.1
20260507000002 69 351 2.0 5.0 0.00 0.00 0.00 68 1020.1
20260506235502 69 345 2.0 10.0 0.00 0.00 0.00 68 1020.1
20260506235023 69 341 2.0 10.0 0.00 0.00 0.00 68 1020.1
20260506234502 70 351 2.0 10.0 0.00 0.00 0.00 68 1020.1
20260506234002 70 337 1.0 5.0 0.00 0.00 0.00 68 1020.1
20260506233523 70 324 1.0 5.0 0.00 0.00 0.00 68 1020.1
20260506233002 70 329 1.0 5.0 0.00 0.00 0.00 67 1020.1
20260506232502 70 337 1.0 8.0 0.00 0.00 0.00 67 1020.1
20260506232002 71 345 2.0 8.0 0.00 0.00 0.00 67 1020.1
20260506231502 71 345 2.0 9.0 0.00 0.00 0.00 67 1020.1
20260506231002 71 337 2.0 9.0 0.00 0.00 0.00 67 1020.1
20260506230502 71 342 2.0 9.0 0.00 0.00 0.00 67 1020.1
20260506230002 71 347 3.0 9.0 0.00 0.00 0.00 66 1020.1
20260506225502 72 339 2.0 8.0 0.00 0.00 0.00 66 1020.1
20260506225023 72 336 1.0 8.0 0.00 0.00 0.00 66 1020.1
20260506224502 72 340 2.0 9.0 0.00 0.00 0.00 67 1020.1
20260506224002 72 337 2.0 9.0 0.00 0.00 0.00 66 1020.1
20260506223502 72 332 2.0 6.0 0.00 0.00 0.00 66 1020.1
20260506223002 72 337 2.0 6.0 0.00 0.00 0.00 66 1020.1
20260506222502 72 342 3.0 8.0 0.00 0.00 0.00 66 1020.1
20260506222002 72 335 2.0 8.0 0.00 0.00 0.00 66 1020.1
20260506221502 72 230 1.0 6.0 0.00 0.00 0.00 66 1020.1
20260506221002 72 223 1.0 8.0 0.00 0.00 0.00 66 1020.1
20260506220502 72 251 1.0 12.0 0.00 0.00 0.00 66 1020.1
20260506220003 72 258 1.0 12.0 0.00 0.00 0.00 65 1020.1
20260506215502 72 275 1.0 4.0 0.00 0.00 0.00 66 1020.1
20260506215002 72 283 1.0 5.0 0.00 0.00 0.00 64 1020.1
20260506214502 72 349 1.0 9.0 0.00 0.00 0.00 64 1020.1
20260506214002 72 347 2.0 9.0 0.00 0.00 0.00 64 1020.1
20260506213502 72 352 1.0 9.0 0.00 0.00 0.00 64 1020.1
20260506213023 72 358 1.0 8.0 0.00 0.00 0.00 65 1020.1
20260506212502 72 358 1.0 8.0 0.00 0.00 0.00 65 1020.1
20260506212002 72 3 1.0 5.0 0.00 0.00 0.00 65 1020.1
20260506211523 72 346 2.0 8.0 0.00 0.00 0.00 65 1020.1
20260506211002 71 340 2.0 8.0 0.00 0.00 0.00 65 1020.1